{"data":{"norad_id":57195,"intl_designator":"2023-091AF","name":"AVION KALUGA 650","alt_names":[],"object_type":"PAYLOAD","status":"ACTIVE","operator":null,"country":"CIS","launch_date":"2023-06-27","launch_site_code":"VOSTO","launch_vehicle":null,"mission":null,"orbit_class":"UNKNOWN","rcs_meters":null,"size_class":null,"mass_kg":null,"dimensions":null,"purposes":[],"wikipedia_slug":null,"has_3d_model":false,"image_url":null,"decayed_at":null,"tle_current":{"epoch":"2026-05-25T04:34:02.102304Z","epoch_age_seconds":62628,"freshness":"FRESH","line1":"1 57195U 23091AF  26145.19030211  .00005475  00000+0  25660-3 0  9999","line2":"2 57195  97.5104 204.8629 0010465 181.7949 178.3250 15.20064604160530","mean_motion":15.20064604,"eccentricity":0.0010465,"inclination_deg":97.5104,"raan_deg":204.8629,"arg_perigee_deg":181.7949,"mean_anomaly_deg":178.325,"bstar":0.0002566,"rev_number":16053,"period_min":94.732815711299,"perigee_km":498.44168408924,"apogee_km":512.84944099264,"semimajor_km":6883.7825625409,"source":"CELESTRAK","updated_at":"2026-05-25T13:37:59.914869Z"}}}